QPF
0.17 0.17 0.14 0.13 0.09 0.10 0.12 0.11 0.12 0.12 0.11 0.12 0.16 0.14 0.11 0.07 0.04 0.02 0.02 0.02 0.05 0.07 0.08 0.10 0.12 0.13 0.16 0.18 0.21 0.22 0.21 0.19 0.17 0.16 0.12 0.06 0.04 0.06 0.07 0.04 0.01 0.00 0.00
0.20 0.20 0.17 0.17 0.16 0.20 0.27 0.26 0.24 0.24 0.23 0.20 0.15 0.11 0.11 0.10 0.08 0.05 0.03 0.04 0.04 0.05 0.05 0.06 0.08 0.09 0.13 0.16 0.18 0.21 0.21 0.20 0.16 0.13 0.13 0.11 0.06 0.04 0.07 0.09 0.06 0.02 0.00
0.23 0.26 0.25 0.22 0.22 0.27 0.31 0.29 0.30 0.32 0.26 0.21 0.17 0.14 0.12 0.10 0.09 0.06 0.03 0.03 0.03 0.02 0.02 0.02 0.03 0.04 0.05 0.09 0.11 0.14 0.15 0.14 0.12 0.09 0.08 0.09 0.08 0.04 0.03 0.08 0.11 0.07 0.02
0.32 0.34 0.29 0.24 0.24 0.25 0.22 0.22 0.24 0.27 0.28 0.29 0.27 0.22 0.19 0.16 0.10 0.06 0.05 0.04 0.03 0.01 0.01 0.01 0.01 0.01 0.02 0.04 0.07 0.10 0.11 0.09 0.08 0.08 0.06 0.06 0.06 0.05 0.03 0.03 0.06 0.09 0.06
0.36 0.37 0.32 0.25 0.20 0.17 0.14 0.13 0.14 0.17 0.19 0.21 0.21 0.20 0.19 0.16 0.11 0.07 0.05 0.03 0.03 0.02 0.02 0.02 0.00 0.00 0.00 0.01 0.04 0.09 0.11 0.11 0.09 0.09 0.10 0.09 0.08 0.05 0.03 0.02 0.02 0.04 0.07
0.37 0.34 0.29 0.23 0.17 0.14 0.11 0.08 0.08 0.09 0.09 0.10 0.07 0.08 0.08 0.06 0.05 0.03 0.02 0.01 0.01 0.01 0.00 0.01 0.01 0.00 0.00 0.00 0.02 0.06 0.11 0.13 0.11 0.11 0.12 0.13 0.12 0.10 0.06 0.03 0.01 0.01 0.03
0.35 0.30 0.24 0.19 0.14 0.10 0.06 0.04 0.04 0.04 0.04 0.04 0.03 0.03 0.02 0.01 0.01 0.01 0.00 0.00 0.00 0.00 0.00 0.00 0.00 0.00 0.00 0.00 0.00 0.02 0.04 0.09 0.11 0.10 0.10 0.10 0.11 0.10 0.07 0.05 0.02 0.01 0.01
0.27 0.25 0.22 0.17 0.12 0.09 0.05 0.03 0.02 0.02 0.02 0.02 0.01 0.01 0.01 0.01 0.00 0.00 0.00 0.00 0.00 0.00 0.00 0.00 0.00 0.00 0.00 0.00 0.00 0.00 0.01 0.03 0.07 0.08 0.07 0.06 0.07 0.07 0.06 0.06 0.04 0.02 0.01
0.16 0.17 0.17 0.16 0.12 0.08 0.06 0.04 0.02 0.01 0.01 0.01 0.00 0.00 0.00 0.00 0.00 0.00 0.00 0.00 0.00 0.00 0.00 0.00 0.00 0.00 0.00 0.00 0.00 0.00 0.00 0.01 0.03 0.06 0.07 0.06 0.04 0.03 0.03 0.05 0.06 0.04 0.02
0.08 0.10 0.11 0.12 0.11 0.09 0.08 0.05 0.03 0.02 0.01 0.00 0.00 0.00 0.00 0.00 0.00 0.00 0.00 0.00 0.00 0.00 0.00 0.00 0.00 0.00 0.00 0.00 0.00 0.00 0.00 0.00 0.01 0.03 0.06 0.05 0.03 0.02 0.02 0.03 0.06 0.07 0.06
0.07 0.08 0.09 0.08 0.08 0.09 0.09 0.07 0.06 0.03 0.02 0.00 0.00 0.00 0.00 0.00 0.00 0.00 0.00 0.00 0.00 0.00 0.00 0.00 0.00 0.00 0.00 0.00 0.01 0.00 0.00 0.00 0.00 0.01 0.03 0.04 0.04 0.03 0.03 0.03 0.05 0.07 0.09
0.05 0.07 0.09 0.11 0.10 0.10 0.08 0.07 0.06 0.04 0.03 0.01 0.00 0.00 0.00 0.00 0.00 0.00 0.00 0.00 0.00 0.00 0.00 0.00 0.00 0.00 0.00 0.00 0.01 0.00 0.00 0.00 0.00 0.00 0.01 0.02 0.03 0.04 0.04 0.05 0.07 0.09 0.10
0.01 0.03 0.05 0.07 0.09 0.11 0.12 0.10 0.08 0.06 0.05 0.03 0.01 0.01 0.00 0.00 0.00 0.00 0.00 0.00 0.00 0.00 0.00 0.00 0.00 0.00 0.00 0.00 0.00 0.00 0.00 0.00 0.00 0.00 0.00 0.01 0.01 0.02 0.03 0.04 0.07 0.10 0.13
0.00 0.00 0.01 0.02 0.04 0.07 0.09 0.10 0.11 0.10 0.08 0.06 0.04 0.02 0.01 0.00 0.00 0.00 0.00 0.00 0.00 0.00 0.00 0.00 0.00 0.00 0.00 0.00 0.00 0.00 0.01 0.01 0.00 0.01 0.00 0.00 0.01 0.02 0.04 0.05 0.06 0.09 0.13
0.00 0.00 0.00 0.00 0.01 0.02 0.04 0.07 0.10 0.13 0.14 0.11 0.08 0.06 0.02 0.01 0.00 0.00 0.00 0.00 0.00 0.00 0.00 0.00 0.00 0.01 0.00 0.00 0.00 0.00 0.00 0.01 0.01 0.01 0.01 0.01 0.02 0.04 0.05 0.06 0.07 0.08 0.10
0.00 0.00 0.00 0.00 0.00 0.00 0.01 0.04 0.08 0.12 0.18 0.21 0.18 0.13 0.08 0.04 0.03 0.01 0.01 0.00 0.00 0.01 0.00 0.00 0.01 0.01 0.00 0.00 0.00 0.00 0.00 0.01 0.01 0.01 0.01 0.02 0.03 0.03 0.04 0.06 0.06 0.06 0.07
0.00 0.00 0.00 0.00 0.00 0.00 0.00 0.01 0.04 0.09 0.16 0.26 0.35 0.32 0.21 0.13 0.08 0.05 0.03 0.01 0.01 0.01 0.01 0.01 0.01 0.02 0.01 0.01 0.01 0.00 0.00 0.01 0.01 0.01 0.01 0.02 0.02 0.03 0.03 0.05 0.06 0.06 0.05
0.00 0.00 0.00 0.00 0.00 0.00 0.00 0.00 0.00 0.02 0.07 0.18 0.35 0.49 0.48 0.36 0.22 0.14 0.09 0.04 0.01 0.01 0.01 0.01 0.02 0.02 0.02 0.02 0.01 0.00 0.00 0.00 0.00 0.02 0.02 0.03 0.03 0.04 0.04 0.04 0.04 0.05 0.06
0.01 0.01 0.01 0.01 0.01 0.00 0.00 0.00 0.00 0.00 0.02 0.05 0.15 0.34 0.53 0.62 0.49 0.31 0.19 0.12 0.06 0.03 0.02 0.02 0.02 0.03 0.02 0.01 0.01 0.01 0.00 0.00 0.01 0.02 0.03 0.03 0.04 0.04 0.04 0.03 0.03 0.02 0.02
0.01 0.01 0.01 0.01 0.01 0.01 0.01 0.01 0.01 0.01 0.01 0.02 0.05 0.12 0.26 0.45 0.58 0.57 0.40 0.24 0.15 0.09 0.05 0.03 0.03 0.03 0.02 0.01 0.01 0.01 0.01 0.01 0.01 0.01 0.01 0.02 0.02 0.02 0.01 0.01 0.01 0.01 0.01
0.01 0.02 0.03 0.03 0.02 0.01 0.01 0.01 0.01 0.01 0.01 0.01 0.02 0.04 0.09 0.18 0.32 0.46 0.51 0.43 0.29 0.16 0.09 0.04 0.03 0.03 0.02 0.02 0.02 0.01 0.00 0.01 0.01 0.01 0.01 0.01 0.01 0.01 0.01 0.01 0.01 0.01 0.01
0.04 0.04 0.04 0.05 0.05 0.02 0.01 0.01 0.01 0.02 0.02 0.02 0.03 0.03 0.04 0.06 0.12 0.23 0.34 0.40 0.40 0.29 0.16 0.08 0.04 0.03 0.03 0.01 0.01 0.00 0.00 0.00 0.01 0.01 0.01 0.01 0.00 0.00 0.00 0.00 0.00 0.00 0.00
0.05 0.06 0.07 0.09 0.10 0.08 0.05 0.02 0.01 0.02 0.03 0.04 0.04 0.04 0.02 0.02 0.04 0.10 0.18 0.26 0.30 0.28 0.21 0.15 0.09 0.06 0.05 0.02 0.01 0.01 0.01 0.01 0.00 0.00 0.00 0.00 0.00 0.00 0.00 0.00 0.00 0.00 0.00
0.07 0.08 0.09 0.11 0.14 0.12 0.08 0.04 0.02 0.03 0.05 0.04 0.04 0.04 0.04 0.03 0.02 0.04 0.09 0.15 0.20 0.21 0.18 0.12 0.10 0.12 0.11 0.07 0.03 0.02 0.01 0.01 0.01 0.01 0.00 0.00 0.00 0.00 0.00 0.00 0.00 0.00 0.00
0.08 0.09 0.10 0.12 0.14 0.14 0.10 0.05 0.03 0.05 0.05 0.04 0.04 0.04 0.04 0.04 0.02 0.01 0.03 0.08 0.13 0.16 0.17 0.12 0.08 0.10 0.11 0.07 0.04 0.02 0.02 0.02 0.03 0.02 0.01 0.01 0.00 0.00 0.00 0.00 0.00 0.00 0.00
0.09 0.09 0.09 0.11 0.12 0.14 0.11 0.05 0.03 0.04 0.04 0.05 0.05 0.05 0.02 0.03 0.03 0.01 0.01 0.03 0.07 0.10 0.14 0.13 0.08 0.05 0.05 0.05 0.03 0.02 0.02 0.03 0.04 0.03 0.01 0.01 0.01 0.00 0.00 0.00 0.00 0.00 0.00
MSLP
1010.85 1011.07 1011.30 1011.53 1011.76 1012.00 1012.23 1012.45 1012.63 1012.78 1012.85 1012.85 1012.79 1012.68 1012.55 1012.46 1012.44 1012.54 1012.76 1013.10 1013.54 1014.03 1014.54 1015.00 1015.41 1015.74 1016.00 1016.21 1016.40 1016.61 1016.84 1017.13 1017.45 1017.81 1018.18 1018.56 1018.92 1019.25 1019.57 1019.88 1020.17 1020.47 1020.76
1010.33 1010.51 1010.72 1010.95 1011.19 1011.43 1011.68 1011.92 1012.13 1012.29 1012.39 1012.42 1012.37 1012.28 1012.16 1012.05 1012.01 1012.07 1012.25 1012.54 1012.94 1013.40 1013.88 1014.34 1014.75 1015.09 1015.36 1015.59 1015.79 1016.00 1016.24 1016.53 1016.86 1017.23 1017.63 1018.03 1018.42 1018.79 1019.15 1019.48 1019.81 1020.13 1020.45
1009.87 1010.01 1010.19 1010.40 1010.64 1010.90 1011.16 1011.43 1011.67 1011.87 1012.00 1012.07 1012.05 1011.97 1011.85 1011.74 1011.66 1011.67 1011.78 1012.00 1012.33 1012.72 1013.16 1013.59 1013.99 1014.33 1014.62 1014.86 1015.08 1015.31 1015.56 1015.87 1016.22 1016.61 1017.02 1017.45 1017.86 1018.26 1018.63 1018.99 1019.33 1019.67 1020.01
1009.47 1009.55 1009.70 1009.89 1010.13 1010.39 1010.68 1010.97 1011.25 1011.49 1011.66 1011.76 1011.78 1011.73 1011.62 1011.49 1011.38 1011.33 1011.37 1011.51 1011.74 1012.06 1012.42 1012.79 1013.16 1013.48 1013.77 1014.03 1014.27 1014.53 1014.82 1015.15 1015.53 1015.95 1016.39 1016.83 1017.26 1017.67 1018.06 1018.42 1018.77 1019.13 1019.49
1009.14 1009.17 1009.28 1009.45 1009.68 1009.95 1010.25 1010.55 1010.85 1011.12 1011.34 1011.48 1011.53 1011.51 1011.42 1011.29 1011.16 1011.06 1011.03 1011.08 1011.22 1011.44 1011.71 1012.01 1012.32 1012.61 1012.88 1013.15 1013.41 1013.70 1014.02 1014.39 1014.81 1015.27 1015.74 1016.20 1016.65 1017.07 1017.46 1017.82 1018.17 1018.53 1018.90
1008.91 1008.89 1008.96 1009.11 1009.32 1009.58 1009.87 1010.18 1010.49 1010.77 1011.00 1011.17 1011.26 1011.27 1011.21 1011.09 1010.96 1010.84 1010.76 1010.74 1010.79 1010.92 1011.09 1011.31 1011.54 1011.78 1012.03 1012.28 1012.56 1012.87 1013.23 1013.63 1014.09 1014.58 1015.08 1015.57 1016.03 1016.46 1016.84 1017.20 1017.55 1017.90 1018.28
1008.79 1008.73 1008.78 1008.90 1009.08 1009.31 1009.58 1009.86 1010.15 1010.42 1010.66 1010.84 1010.95 1010.99 1010.96 1010.88 1010.77 1010.65 1010.55 1010.49 1010.48 1010.52 1010.62 1010.74 1010.90 1011.08 1011.28 1011.50 1011.77 1012.08 1012.46 1012.89 1013.38 1013.89 1014.42 1014.92 1015.40 1015.83 1016.22 1016.58 1016.92 1017.27 1017.64
1008.79 1008.71 1008.73 1008.82 1008.97 1009.16 1009.38 1009.62 1009.86 1010.09 1010.30 1010.47 1010.60 1010.66 1010.67 1010.63 1010.56 1010.47 1010.38 1010.31 1010.27 1010.27 1010.29 1010.35 1010.44 1010.55 1010.69 1010.87 1011.11 1011.40 1011.77 1012.20 1012.69 1013.22 1013.75 1014.26 1014.75 1015.18 1015.58 1015.94 1016.28 1016.63 1017.00
1008.93 1008.83 1008.82 1008.87 1008.98 1009.12 1009.28 1009.46 1009.63 1009.80 1009.96 1010.10 1010.21 1010.29 1010.33 1010.33 1010.31 1010.27 1010.22 1010.18 1010.14 1010.12 1010.12 1010.13 1010.16 1010.21 1010.29 1010.42 1010.60 1010.86 1011.19 1011.59 1012.05 1012.55 1013.07 1013.58 1014.06 1014.50 1014.90 1015.27 1015.62 1015.97 1016.34
1009.15 1009.04 1009.00 1009.03 1009.09 1009.18 1009.28 1009.38 1009.48 1009.57 1009.66 1009.75 1009.83 1009.90 1009.95 1009.99 1010.02 1010.03 1010.04 1010.04 1010.04 1010.04 1010.04 1010.03 1010.03 1010.04 1010.07 1010.14 1010.26 1010.45 1010.72 1011.06 1011.46 1011.91 1012.39 1012.87 1013.34 1013.78 1014.18 1014.57 1014.93 1015.30 1015.67
1009.39 1009.27 1009.22 1009.22 1009.25 1009.29 1009.33 1009.36 1009.38 1009.40 1009.42 1009.44 1009.48 1009.52 1009.57 1009.63 1009.69 1009.75 1009.81 1009.87 1009.92 1009.96 1009.98 1009.99 1009.99 1009.98 1009.98 1010.00 1010.07 1010.19 1010.37 1010.63 1010.95 1011.33 1011.74 1012.18 1012.62 1013.04 1013.45 1013.85 1014.24 1014.62 1015.01
1009.59 1009.47 1009.40 1009.39 1009.39 1009.39 1009.38 1009.36 1009.32 1009.28 1009.23 1009.19 1009.18 1009.18 1009.21 1009.26 1009.34 1009.43 1009.53 1009.63 1009.74 1009.82 1009.89 1009.94 1009.97 1009.97 1009.96 1009.96 1009.98 1010.04 1010.15 1010.31 1010.55 1010.83 1011.17 1011.54 1011.94 1012.35 1012.76 1013.17 1013.57 1013.98 1014.38
1009.68 1009.55 1009.48 1009.45 1009.44 1009.42 1009.39 1009.34 1009.27 1009.18 1009.09 1009.00 1008.94 1008.90 1008.89 1008.92 1008.98 1009.08 1009.20 1009.33 1009.47 1009.61 1009.73 1009.83 1009.90 1009.95 1009.96 1009.97 1009.97 1009.99 1010.04 1010.13 1010.27 1010.48 1010.73 1011.04 1011.39 1011.76 1012.16 1012.58 1013.00 1013.42 1013.83
1009.62 1009.48 1009.40 1009.36 1009.35 1009.33 1009.30 1009.25 1009.17 1009.07 1008.95 1008.84 1008.74 1008.67 1008.63 1008.62 1008.66 1008.74 1008.85 1008.99 1009.15 1009.32 1009.49 1009.65 1009.78 1009.88 1009.95 1009.98 1010.00 1010.01 1010.03 1010.08 1010.16 1010.29 1010.47 1010.72 1011.01 1011.36 1011.74 1012.15 1012.58 1013.00 1013.41
1009.39 1009.24 1009.15 1009.11 1009.09 1009.09 1009.07 1009.03 1008.97 1008.89 1008.79 1008.68 1008.57 1008.48 1008.42 1008.38 1008.39 1008.43 1008.52 1008.64 1008.81 1008.99 1009.20 1009.40 1009.59 1009.76 1009.89 1009.99 1010.06 1010.10 1010.12 1010.15 1010.20 1010.29 1010.43 1010.62 1010.88 1011.19 1011.55 1011.95 1012.36 1012.78 1013.18
1009.03 1008.85 1008.74 1008.69 1008.67 1008.67 1008.67 1008.67 1008.64 1008.60 1008.54 1008.46 1008.38 1008.30 1008.23 1008.19 1008.17 1008.19 1008.24 1008.34 1008.49 1008.67 1008.88 1009.12 1009.36 1009.59 1009.80 1009.97 1010.11 1010.21 1010.28 1010.33 1010.39 1010.47 1010.59 1010.76 1010.98 1011.27 1011.61 1011.98 1012.38 1012.78 1013.17
1008.56 1008.35 1008.21 1008.13 1008.10 1008.10 1008.11 1008.13 1008.15 1008.15 1008.14 1008.13 1008.10 1008.07 1008.04 1008.02 1008.00 1008.01 1008.05 1008.12 1008.24 1008.40 1008.61 1008.85 1009.12 1009.40 1009.67 1009.92 1010.14 1010.31 1010.45 1010.57 1010.67 1010.78 1010.91 1011.08 1011.30 1011.58 1011.90 1012.26 1012.64 1013.02 1013.38
1008.06 1007.81 1007.62 1007.50 1007.43 1007.41 1007.41 1007.44 1007.48 1007.53 1007.59 1007.65 1007.70 1007.75 1007.79 1007.82 1007.85 1007.88 1007.91 1007.97 1008.07 1008.20 1008.39 1008.62 1008.89 1009.19 1009.51 1009.82 1010.11 1010.37 1010.60 1010.80 1010.97 1011.14 1011.32 1011.52 1011.76 1012.05 1012.37 1012.72 1013.09 1013.45 1013.79
1007.56 1007.26 1007.02 1006.84 1006.72 1006.64 1006.61 1006.62 1006.67 1006.75 1006.87 1007.00 1007.15 1007.30 1007.45 1007.57 1007.67 1007.76 1007.82 1007.89 1007.96 1008.07 1008.22 1008.42 1008.67 1008.97 1009.30 1009.65 1010.01 1010.35 1010.66 1010.96 1011.22 1011.48 1011.73 1011.99 1012.28 1012.60 1012.94 1013.31 1013.68 1014.04 1014.37
1007.07 1006.72 1006.42 1006.18 1005.99 1005.84 1005.76 1005.72 1005.75 1005.85 1006.00 1006.21 1006.45 1006.72 1006.98 1007.22 1007.43 1007.60 1007.72 1007.81 1007.88 1007.96 1008.07 1008.23 1008.44 1008.71 1009.04 1009.41 1009.80 1010.21 1010.61 1011.00 1011.37 1011.72 1012.07 1012.43 1012.79 1013.16 1013.55 1013.95 1014.35 1014.72 1015.07
1006.58 1006.20 1005.85 1005.54 1005.27 1005.06 1004.90 1004.80 1004.80 1004.88 1005.06 1005.32 1005.65 1006.02 1006.40 1006.77 1007.10 1007.36 1007.55 1007.68 1007.77 1007.83 1007.90 1008.01 1008.17 1008.40 1008.70 1009.07 1009.49 1009.95 1010.43 1010.91 1011.39 1011.86 1012.32 1012.77 1013.23 1013.69 1014.15 1014.60 1015.04 1015.45 1015.83
1006.08 1005.67 1005.29 1004.93 1004.60 1004.31 1004.08 1003.92 1003.87 1003.92 1004.11 1004.40 1004.80 1005.26 1005.75 1006.23 1006.67 1007.02 1007.29 1007.47 1007.57 1007.62 1007.66 1007.71 1007.82 1008.01 1008.28 1008.64 1009.09 1009.59 1010.14 1010.71 1011.30 1011.88 1012.46 1013.03 1013.59 1014.14 1014.69 1015.21 1015.71 1016.18 1016.60
1005.53 1005.12 1004.72 1004.34 1003.97 1003.63 1003.35 1003.14 1003.04 1003.07 1003.24 1003.55 1003.99 1004.51 1005.07 1005.64 1006.15 1006.58 1006.91 1007.12 1007.24 1007.29 1007.30 1007.32 1007.39 1007.55 1007.80 1008.16 1008.62 1009.17 1009.79 1010.45 1011.14 1011.83 1012.53 1013.21 1013.87 1014.52 1015.16 1015.76 1016.32 1016.85 1017.32
1004.91 1004.53 1004.15 1003.77 1003.40 1003.05 1002.74 1002.51 1002.39 1002.39 1002.55 1002.86 1003.30 1003.84 1004.44 1005.04 1005.60 1006.07 1006.42 1006.65 1006.77 1006.82 1006.82 1006.82 1006.88 1007.02 1007.28 1007.66 1008.16 1008.76 1009.45 1010.19 1010.97 1011.77 1012.56 1013.34 1014.10 1014.83 1015.54 1016.21 1016.83 1017.41 1017.92
1004.25 1003.90 1003.56 1003.23 1002.89 1002.57 1002.28 1002.06 1001.94 1001.94 1002.09 1002.38 1002.81 1003.33 1003.91 1004.50 1005.05 1005.50 1005.85 1006.07 1006.19 1006.23 1006.23 1006.24 1006.31 1006.47 1006.76 1007.18 1007.73 1008.40 1009.16 1009.99 1010.85 1011.73 1012.60 1013.45 1014.27 1015.06 1015.81 1016.53 1017.19 1017.80 1018.34
1003.55 1003.26 1002.99 1002.72 1002.45 1002.20 1001.97 1001.80 1001.70 1001.72 1001.86 1002.13 1002.52 1002.99 1003.51 1004.04 1004.53 1004.93 1005.23 1005.42 1005.52 1005.55 1005.57 1005.60 1005.71 1005.92 1006.27 1006.76 1007.39 1008.13 1008.96 1009.86 1010.79 1011.72 1012.63 1013.52 1014.37 1015.18 1015.95 1016.68 1017.35 1017.97 1018.52
Thickness
5743 5742 5741 5740 5740 5742 5743 5742 5743 5744 5744 5743 5743 5743 5744 5745 5747 5748 5748 5744 5740 5738 5736 5735 5734 5733 5732 5732 5731 5730 5730 5730 5729 5728 5727 5727 5727 5727 5727 5727 5726 5725 5724
5735 5734 5734 5735 5736 5736 5737 5738 5739 5739 5739 5740 5741 5742 5744 5744 5745 5745 5745 5744 5740 5738 5737 5736 5735 5734 5732 5732 5731 5730 5730 5730 5730 5729 5728 5727 5727 5726 5727 5727 5727 5726 5725
5727 5727 5728 5730 5732 5731 5731 5731 5733 5734 5735 5737 5739 5741 5742 5743 5744 5744 5745 5745 5744 5741 5739 5737 5736 5735 5734 5733 5732 5731 5731 5731 5731 5730 5729 5728 5727 5726 5726 5726 5726 5726 5725
5720 5719 5722 5724 5726 5726 5727 5728 5729 5729 5731 5732 5734 5736 5739 5740 5742 5743 5743 5743 5744 5745 5742 5739 5737 5736 5734 5733 5732 5732 5732 5732 5731 5731 5730 5728 5728 5727 5726 5726 5726 5726 5726
5713 5713 5715 5717 5720 5722 5724 5725 5728 5727 5727 5728 5730 5732 5735 5737 5739 5741 5741 5742 5742 5742 5743 5741 5737 5736 5734 5734 5733 5733 5732 5732 5731 5730 5729 5728 5727 5727 5726 5726 5726 5726 5725
5708 5708 5709 5710 5713 5716 5718 5720 5722 5722 5723 5725 5729 5733 5733 5736 5737 5739 5739 5741 5741 5740 5740 5741 5739 5738 5735 5735 5734 5733 5732 5731 5730 5728 5728 5727 5726 5726 5725 5725 5726 5726 5725
5703 5703 5704 5705 5706 5708 5711 5715 5717 5717 5717 5721 5721 5723 5728 5733 5734 5735 5736 5738 5740 5740 5739 5739 5739 5740 5740 5735 5734 5733 5732 5731 5730 5728 5727 5726 5725 5725 5724 5724 5724 5725 5725
5700 5700 5700 5699 5700 5701 5704 5707 5709 5710 5713 5715 5714 5715 5717 5724 5727 5732 5734 5734 5736 5739 5739 5739 5738 5738 5738 5741 5740 5735 5732 5732 5731 5729 5728 5726 5724 5724 5723 5723 5723 5723 5724
5696 5696 5696 5696 5695 5697 5698 5699 5701 5701 5704 5709 5711 5711 5711 5715 5726 5729 5729 5731 5732 5734 5736 5738 5737 5737 5737 5739 5740 5737 5734 5732 5731 5730 5728 5726 5725 5724 5723 5722 5722 5722 5722
5688 5690 5690 5691 5690 5691 5692 5693 5697 5697 5697 5700 5705 5707 5710 5714 5713 5720 5723 5727 5728 5728 5732 5734 5736 5736 5736 5737 5738 5736 5734 5732 5731 5730 5728 5727 5725 5724 5723 5722 5722 5721 5720
5678 5679 5681 5682 5683 5685 5686 5687 5690 5690 5693 5695 5700 5702 5703 5704 5705 5708 5714 5719 5722 5726 5729 5730 5732 5735 5737 5736 5737 5737 5734 5731 5730 5729 5728 5727 5726 5724 5722 5721 5720 5720 5719
5669 5669 5669 5670 5672 5675 5678 5680 5681 5683 5686 5689 5693 5698 5699 5700 5702 5705 5707 5709 5714 5722 5725 5727 5730 5732 5733 5734 5735 5732 5731 5730 5729 5728 5727 5726 5725 5724 5722 5721 5719 5718 5718
5659 5658 5658 5658 5660 5662 5665 5669 5671 5675 5678 5680 5684 5689 5694 5698 5702 5704 5705 5707 5708 5715 5718 5723 5725 5725 5726 5727 5727 5725 5727 5727 5727 5727 5726 5725 5724 5722 5721 5720 5718 5717 5717
5647 5647 5646 5646 5648 5650 5653 5656 5659 5663 5668 5672 5676 5680 5685 5690 5695 5698 5700 5701 5701 5707 5712 5716 5718 5717 5718 5720 5719 5720 5725 5723 5725 5725 5725 5723 5722 5720 5719 5717 5716 5714 5713
5636 5636 5634 5635 5636 5638 5640 5642 5646 5650 5654 5660 5666 5670 5674 5682 5687 5692 5695 5698 5697 5700 5707 5708 5712 5712 5714 5715 5714 5718 5720 5718 5720 5722 5722 5721 5719 5717 5715 5713 5712 5710 5709
5621 5620 5621 5621 5623 5625 5627 5628 5632 5635 5639 5645 5651 5657 5663 5670 5678 5683 5687 5691 5694 5696 5701 5707 5707 5710 5710 5712 5709 5712 5712 5712 5714 5715 5716 5716 5715 5713 5711 5708 5706 5704 5703
5605 5605 5605 5606 5608 5610 5612 5614 5618 5622 5625 5630 5636 5642 5649 5656 5662 5670 5677 5682 5686 5689 5690 5699 5703 5703 5702 5704 5704 5705 5706 5707 5707 5707 5709 5709 5708 5706 5704 5701 5699 5697 5696
5586 5586 5587 5588 5590 5594 5597 5600 5603 5608 5612 5617 5622 5627 5634 5640 5647 5655 5663 5671 5676 5681 5683 5686 5693 5695 5696 5697 5698 5698 5699 5698 5698 5697 5699 5699 5698 5696 5694 5692 5690 5689 5687
5566 5566 5566 5568 5570 5574 5578 5583 5588 5592 5598 5603 5609 5615 5620 5624 5631 5639 5647 5656 5664 5671 5675 5680 5684 5689 5690 5690 5689 5688 5688 5689 5689 5688 5688 5688 5686 5685 5683 5681 5680 5679 5678
5545 5545 5546 5549 5552 5555 5560 5565 5571 5576 5582 5589 5595 5602 5608 5613 5618 5624 5631 5641 5649 5657 5664 5671 5676 5681 5682 5682 5682 5680 5679 5680 5680 5680 5678 5677 5675 5674 5672 5671 5669 5668 5667
5524 5524 5525 5529 5533 5538 5544 5550 5554 5561 5566 5573 5580 5588 5595 5602 5609 5613 5618 5625 5632 5642 5652 5660 5667 5673 5676 5675 5676 5677 5674 5671 5670 5671 5672 5670 5668 5666 5662 5659 5658 5657 5656
5504 5503 5504 5508 5514 5522 5531 5534 5538 5545 5553 5559 5566 5574 5581 5587 5594 5601 5608 5614 5619 5627 5638 5649 5658 5666 5671 5674 5674 5673 5669 5668 5664 5662 5665 5662 5662 5660 5656 5651 5647 5647 5646
5488 5486 5488 5492 5498 5505 5511 5517 5522 5530 5540 5547 5553 5559 5569 5580 5584 5590 5596 5602 5609 5617 5625 5635 5648 5659 5666 5671 5670 5667 5667 5669 5665 5657 5657 5654 5654 5650 5644 5638 5636 5636 5635
5477 5474 5475 5478 5484 5492 5497 5502 5509 5517 5528 5536 5542 5548 5555 5566 5573 5580 5587 5595 5602 5611 5619 5626 5637 5648 5657 5663 5665 5665 5663 5657 5651 5649 5650 5645 5643 5640 5634 5628 5624 5625 5624
5470 5467 5467 5470 5475 5482 5486 5492 5498 5510 5518 5527 5534 5541 5547 5553 5560 5568 5578 5588 5597 5605 5613 5620 5627 5636 5644 5653 5657 5656 5652 5649 5642 5638 5640 5639 5634 5630 5625 5618 5614 5613 5613
5466 5464 5464 5467 5472 5477 5480 5485 5490 5505 5513 5521 5528 5536 5538 5544 5547 5554 5567 5578 5588 5598 5607 5614 5619 5627 5635 5643 5648 5652 5651 5648 5642 5633 5632 5633 5629 5626 5617 5612 5608 5605 5604